Regional Weather Roundup
Issued by NWS

Home | Current Version | Previous Version | Graphics & Text | Print | Product List | Glossary On
Versions: 1 2 3 4 5 6 7 8 9 10 11 12 13 14 15 16 17 18 19 20 21 22 23 24 25 26 27 28 29 30 31 32 33 34 35 36 37 38 39 40 41 42 43 44 45 46 47 48 49 50
000
ASUS43 KLOT 152158
RWRIL

ILLINOIS REGIONAL WEATHER ROUNDUP
NATIONAL WEATHER SERVICE CHICAGO/ROMEOVILLE IL
500 PM CDT MON SEP 15 2014

NOTE: "FAIR" INDICATES FEW OR NO CLOUDS BELOW 12,000 FEET WITH NO
SIGNIFICANT WEATHER AND/OR OBSTRUCTIONS TO VISIBILITY.

* THESE STATIONS ARE NOT UNDER NWS QUALITY CONTROL. THEY ALSO MAY NOT
  REPORT WEATHER SUCH AS PRECIPITATION OR FOG.

ILZ001-002-007-009-015-016-024-152300-
NORTHWEST ILLINOIS

CITY           SKY/WX    TMP DP  RH WIND       PRES   REMARKS
MOLINE         LGT RAIN  58  51  78 N12       30.12R
$$

ILZ003-004-008-010-011-017-018-152300-
NORTH CENTRAL ILLINOIS

CITY           SKY/WX    TMP DP  RH WIND       PRES   REMARKS
ROCKFORD       NOT AVBL
$$

ILZ005-006-012>014-019>023-152300-
NORTHEAST ILLINOIS

CITY           SKY/WX    TMP DP  RH WIND       PRES   REMARKS
CHICAGO-OHARE  CLOUDY    59  53  80 NW5       30.09S
CHICAGO-MIDWAY DRIZZLE   58  53  84 NW6       30.09S
AURORA         CLOUDY    58  52  80 CALM      30.10S
WAUKEGAN       LGT RAIN  54  52  93 N8G16     30.10R FOG
DUPAGE AIRPORT CLOUDY    58  53  84 N6        30.09S
WHEELING       CLOUDY    60  52  74 CALM      30.11R
NORTHERLY ISL    N/A     59  49  69 W5          N/A
$$

LMZ740>746-152300-
SOUTHERN LAKE MICHIGAN

STATION/POSITION SKY/WX   TEMP    WIND        PRES    VSBY  WAVE
                          AIR SEA DIR/SP/G                  HT/PER
                          (F)     (DEG/KT/KT) (MB)    (MI)  (FT/S)
SOUTHERN BUOY              60 65  320/ 10/ 12 1018.9R         1/ 3
WAUKEGAN HARBOR            56      10/ 20/ 24   N/A
HARRISON CRIB              58     260/  6/  7   N/A
BURNHAM HARBOR             59     290/  2/  9   N/A
CALUMET HARBOR             57     250/  2/  5 1017.7R
MICHIGAN CITY              56     180/  9/ 11   N/A
MICHIGAN CITY 6N           58 64  250/ 10/ 12   N/A           2/ 3
ST. JOSEPH                 60 66  220/ 14/ 17   N/A           3/ 3
$$

ILZ025>027-034>036-040-047-049-050-058-095>099-152300-
WEST-CENTRAL ILLINOIS

CITY           SKY/WX    TMP DP  RH WIND       PRES   REMARKS
$$

ILZ028>032-037-038-041>044-048-051>054-059>061-152300-
CENTRAL ILLINOIS

CITY           SKY/WX    TMP DP  RH WIND       PRES   REMARKS
PEORIA         NOT AVBL
SPRINGFIELD    CLOUDY    61  59  93 VRB3      30.07S FOG
TAYLORVILLE    NOT AVBL
$$

ILZ033-039-045-046-055>057-062-063-152300-
EAST-CENTRAL ILLINOIS

CITY           SKY/WX    TMP DP  RH WIND       PRES   REMARKS
CHAMPAIGN      LGT RAIN  57  57 100 S5        30.07S FOG
MATTOON        LGT RAIN  59  58  96 S5        30.06F FOG
$$

ILZ079-100>102-152300-
SOUTHWEST ILLINOIS

CITY           SKY/WX    TMP DP  RH WIND       PRES   REMARKS
ALTON          CLOUDY    68  66  94 CALM      30.05F FOG
$$

ILZ064>066-069>071-074>076-080>082-084>086-088>090-092>094-152300-
SOUTH-CENTRAL ILLINOIS

CITY           SKY/WX    TMP DP  RH WIND       PRES   REMARKS
CARBONDALE     PTSUNNY   76  63  64 SW9       30.04F
MARION         PTSUNNY   77  64  65 S9        30.05F
$$

ILZ067-068-072-073-078-083-087-091-152300-
SOUTHEAST ILLINOIS

CITY           SKY/WX    TMP DP  RH WIND       PRES   REMARKS
LAWRENCEVILLE  MOSUNNY   71  57  61 S12G23    30.04F
$$

ABBREVIATIONS USED IN REMARKS
   TC - TEMPERATURE IN CELSIUS
  WCI - WIND CHILL INDEX
   HX - HEAT INDEX
  VSB - VISIBILITY
$$




USA.gov is the U.S. government's official web portal to all federal, state and local government web resources and services.